Lenzie, Alberta

5:08 PM MST on December 17, 2017 (GMT -0700)
Lenzie

Weather History for 71243 - December, 2013

Change the Weather History Date:

Saturday, December 7, 2013

  Actual Average Record
Temperature  
Mean Temperature -18 °F -  
Max Temperature -5 °F 32 °F - ()
Min Temperature -31 °F 11 °F - ()
Degree Days  
Heating Degree Days 83    
Moisture  
Dew Point -25 °F    
Average Humidity 59    
Maximum Humidity 69    
Minimum Humidity 37    
Precipitation  
Precipitation 0.00 in - - ()
Sea Level Pressure  
Sea Level Pressure 30.70 in    
Wind  
Wind Speed 7 mph ()    
Max Wind Speed 10 mph    
Max Gust Speed -    
T = Trace of Precipitation, MM = Missing Value Source: Averaged Metar Reports

Daily Weather History Graph

Daily Weather History Graph

Search for Another Location

Airport or City:

Trip Planner

Search our weather history database for the weather conditions in past years. The results will help you decide how hot, cold, wet, or windy it might be!

Date:

Astronomy

Dec. 07, 2013 Rise Set
Actual Time 8:14 AM MST 4:31 PM MST
Civil Twilight 7:36 AM MST 5:08 PM MST
Nautical Twilight 6:55 AM MST 5:49 PM MST
Astronomical Twilight 6:16 AM MST 6:28 PM MST
Moon 11:41 AM MST (12/7) 10:40 PM MST (12/7)
Length of Visible Light 9h 31m
Length of Day
8h 16m
Waxing Crescent, 30% of the Moon is Illuminated
Dec 7
Waxing Crescent
Dec 9
First Quarter
Dec 17
Full
Dec 25
Last Quarter
Jan 1
New

Hourly Weather History & Observations

Time (MST) Temp. Windchill Dew Point Humidity Pressure Visibility Wind Dir Wind Speed Gust Speed Precip Events Conditions
12:00 AM -25.2 °F -41.5 °F -32.4 °F 69% 30.99 in - SW 5.8 mph - N/A   Unknown
1:00 AM -24.9 °F -41.1 °F -32.4 °F 68% 30.95 in - SW 5.8 mph - N/A   Unknown
2:00 AM -23.8 °F -39.8 °F -31.2 °F 68% 30.93 in - SW 5.8 mph - N/A   Unknown
3:00 AM -21.6 °F -39.0 °F -28.8 °F 69% 30.91 in - SW 6.9 mph - N/A   Unknown
4:00 AM -27.0 °F -45.5 °F -35.7 °F 64% 30.91 in - SW 6.9 mph - N/A   Unknown
5:00 AM -23 °F - -31 °F 50% 30.88 in - SW 6.9 mph - -  
5:00 AM -23.3 °F -41.0 °F -30.8 °F 68% 30.88 in - SW 6.9 mph - N/A   Unknown
6:00 AM -25.1 °F -41.3 °F -32.6 °F 68% 30.89 in - SW 5.8 mph - N/A   Unknown
7:00 AM -26.1 °F -42.6 °F -33.9 °F 67% 30.87 in - SW 5.8 mph - N/A   Unknown
8:00 AM -20.7 °F -37.9 °F -29.0 °F 66% 30.82 in - SW 6.9 mph - N/A   Unknown
9:00 AM -18.0 °F -36.1 °F -27.6 °F 62% 30.81 in - SW 8.1 mph - N/A   Unknown
10:00 AM -14.8 °F -30.8 °F -25.8 °F 58% 30.79 in - SW 6.9 mph - N/A   Unknown
11:00 AM -13 °F - -25 °F 37% 30.76 in - SW 9.2 mph - -  
11:00 AM -13.2 °F -32.6 °F -24.9 °F 56% 30.76 in - SW 10.4 mph - N/A   Unknown
12:00 PM -10.7 °F -29.5 °F -23.3 °F 54% 30.71 in - SW 10.4 mph - N/A   Unknown
1:00 PM -8.3 °F -24.3 °F -21.6 °F 52% 30.66 in - SW 8.1 mph - N/A   Unknown
2:00 PM -7.1 °F -21.4 °F -20.0 °F 53% 30.60 in - SSW 6.9 mph - N/A   Unknown
3:00 PM -6.7 °F -23.5 °F -18.9 °F 55% 30.56 in - South 9.2 mph - N/A   Unknown
4:00 PM -7.2 °F -24.2 °F -19.8 °F 54% 30.57 in - SSW 9.2 mph - N/A   Unknown
5:00 PM -9 °F - -21 °F 38% 30.54 in - SSW 9.2 mph - -  
5:00 PM -9.4 °F -27.9 °F -20.7 °F 58% 30.54 in - SW 10.4 mph - N/A   Unknown
6:00 PM -10.5 °F -24.0 °F -21.5 °F 58% 30.54 in - SSW 5.8 mph - N/A   Unknown
7:00 PM -8.7 °F -27.0 °F -20.2 °F 57% 30.51 in - SW 10.4 mph - N/A   Unknown
8:00 PM -9.8 °F -26.1 °F -19.1 °F 63% 30.47 in - WSW 8.1 mph - N/A   Unknown
9:00 PM -9.0 °F -25.2 °F -17.7 °F 66% 30.45 in - WSW 8.1 mph - N/A   Unknown
10:00 PM -7.4 °F -24.4 °F -17.0 °F 63% 30.42 in - WSW 9.2 mph - N/A   Unknown
11:00 PM -5 °F - -15 °F 46% 30.39 in - WSW 9.2 mph - -  
11:00 PM -5.3 °F -21.7 °F -15.0 °F 63% 30.39 in - WSW 9.2 mph - N/A   Unknown